(67) Asia
ephemeris date magn radius delta ra dec elong phase
Today21 Nov 202411.62.507 AU1.523 AU04h03m+14°28'173.2°2.7°
Opposition22 Nov 202411.62.510 AU1.526 AU04h02m+14°21'173.7°2.5°
(67) Asia - 2024-11-21
astro.vanbuitenen.nl


 
-1 year
-1 month
-1 day
Now
+1 day
+1 month
+1 year

The interactive orbit chart above shows the body's path through the solar system and its position at the given date. Green and blue lines are shown perpendicular to the ecliptic plane: Green if the path is above the ecliptic plane, blue if it is below. (Left-click and drag to rotate the view; Right-click and drag to move the view; Use scroll wheel to zoom in our out.)

The orbital elements of Asia are:

            e (Eccentricity)                : 0.1845633
            a (Semimajor axis)              : 2.4227489
            i (Inclination)                 : 6.02817
            Ω (Longitude of ascending node) : 202.38441
            ω (Argument of perihelion)      : 107.25172
            M (Mean anomaly)                : 81.31169
            Epoch                           : 2024 Oct 17

            L (Longitude of perihelion)     : 129.72632
            B (Latitude of perihelion)      : 5.75603
            P (Orbital period in years)     : 3.77            
        

The light curve chart below shows the estimated development of the minor planet's magnitude.


The all-sky chart below shows the path of the minor planet over the same period as the light curve. The current position is marked yellow.





The following chart shows the path of the minor planet in the next few days. The field of view is optimized for (~10x50) binoculars and finderscopes. A more printer-friendly version of the same chart can be found below.




Ephemerides:
Date       Time       RA (2000)    DEC (2000)    delta   radius  elong  phase   PA    magn
2024-11-21 00:00 UT   04 03 40.8   +14 28 37     1.523    2.507  173.2    2.7   323   11.6 
2024-11-21 13:09 UT   04 03 06.7   +14 25 57     1.524    2.508  173.4    2.6   329   11.6 
2024-11-22 00:00 UT   04 02 38.6   +14 23 45     1.525    2.509  173.6    2.5   334   11.6 
2024-11-23 00:00 UT   04 01 36.3   +14 18 55     1.527    2.511  173.8    2.4   345   11.6 
2024-11-24 00:00 UT   04 00 34.2   +14 14 09     1.529    2.513  173.7    2.5   357   11.6 
2024-11-25 00:00 UT   03 59 32.4   +14 09 27     1.531    2.515  173.4    2.6     8   11.6 
2024-11-26 00:00 UT   03 58 30.7   +14 04 50     1.534    2.517  172.8    2.8    17   11.6 
2024-11-27 00:00 UT   03 57 29.5   +14 00 17     1.537    2.518  172.1    3.1    25   11.7 
2024-11-28 00:00 UT   03 56 28.7   +13 55 49     1.541    2.520  171.3    3.4    32   11.7 
2024-11-29 00:00 UT   03 55 28.4   +13 51 27     1.544    2.522  170.4    3.8    37   11.7 
2024-11-30 00:00 UT   03 54 28.7   +13 47 10     1.548    2.524  169.4    4.1    41   11.7 
2024-12-01 00:00 UT   03 53 29.6   +13 42 58     1.552    2.526  168.3    4.5    45   11.8 
2024-12-02 00:00 UT   03 52 31.3   +13 38 53     1.557    2.528  167.3    4.9    48   11.8 
2024-12-03 00:00 UT   03 51 33.8   +13 34 54     1.562    2.530  166.1    5.4    51   11.8 
2024-12-04 00:00 UT   03 50 37.2   +13 31 01     1.567    2.532  165.0    5.8    53   11.9 
2024-12-05 00:00 UT   03 49 41.5   +13 27 15     1.572    2.534  163.9    6.2    55   11.9 
2024-12-06 00:00 UT   03 48 46.9   +13 23 36     1.578    2.536  162.7    6.6    56   11.9 
2024-12-07 00:00 UT   03 47 53.3   +13 20 04     1.584    2.537  161.6    7.0    57   12.0 
2024-12-08 00:00 UT   03 47 00.8   +13 16 40     1.590    2.539  160.4    7.5    59   12.0 
2024-12-09 00:00 UT   03 46 09.5   +13 13 23     1.596    2.541  159.2    7.9    60   12.0 
2024-12-10 00:00 UT   03 45 19.4   +13 10 13     1.603    2.543  158.1    8.3    61   12.0 
2024-12-11 00:00 UT   03 44 30.6   +13 07 11     1.610    2.545  156.9    8.7    62   12.1 
2024-12-12 00:00 UT   03 43 43.2   +13 04 17     1.617    2.547  155.7    9.1    62   12.1 
2024-12-13 00:00 UT   03 42 57.0   +13 01 32     1.624    2.549  154.6    9.5    63   12.1 
2024-12-14 00:00 UT   03 42 12.3   +12 58 54     1.632    2.551  153.4    9.9    64   12.2 
2024-12-15 00:00 UT   03 41 29.0   +12 56 24     1.640    2.552  152.2   10.3    64   12.2 
2024-12-16 00:00 UT   03 40 47.2   +12 54 03     1.648    2.554  151.1   10.7    65   12.2 
2024-12-17 00:00 UT   03 40 06.9   +12 51 50     1.656    2.556  149.9   11.1    65   12.2 
2024-12-18 00:00 UT   03 39 28.1   +12 49 45     1.665    2.558  148.8   11.5    66   12.3 
2024-12-19 00:00 UT   03 38 50.9   +12 47 49     1.674    2.560  147.6   11.9    66   12.3 
2024-12-20 00:00 UT   03 38 15.2   +12 46 01     1.683    2.562  146.5   12.2    67   12.3 
2024-12-21 00:00 UT   03 37 41.1   +12 44 22     1.692    2.563  145.4   12.6    67   12.3 


    Terminology:
            
    delta:  distance between minor planet and earth in AU
    radius: distance between minor planet and sun in AU
    magn:   magnitude (brightness) estimate    
    ra:     right ascension in hours (24h = 360deg)
    dec:    declination in degrees
    elong:  elongation in degrees (angle sun-earth-minor planet)    
    phase:  phase angle in degrees (angle sun-minor planet-earth)        
    AU:     Astronomical Unit (mean distance between earth and sun: 149597870.7 km
    

Orbital elements provided by the MPC (Minor Planet Center).
Calculations by a modified version of AAPlus, a C# implementation of the AA+ project by PJ Naughter from the algorithms presented in the book "Astronomical Algorithms" by Jean Meeus.
NGC2000 dso catalog and star labels from VizieR as provided by the Strasbourg astronomical Data Center.
Tycho2 catalog from the ESO archive.